View from above orbital plane
|
View from above satellite
|
Ground track
|
The orbit data is extracted from the following two-line orbital elements,
1 43803U 18099AX 22179.42892977 .00000831 00000-0 76824-4 0 9997
2 43803 97.6195 246.1773 0013578 226.9867 133.0218 14.97128587194713
Epoch (UTC): | 28 June 2022 10:17:39 |
Eccentricity: | 0.0013578 |
inclination: | 97.6195° |
perigee height: | 566 km |
apogee height: | 585 km |
right ascension of ascending node: | 246.1773° |
argument of perigee: | 226.9867° |
revolutions per day: | 14.97128587 |
mean anomaly at epoch: | 133.0218° |
orbit number at epoch: | 19471 |
The dashed part of the orbit path shows where the satellite is in the earth's shadow,
|
|